Year,Month,Day,Hour,Minute,Value (Times are PST for temperature in C)
2008,07,23,00,00,11.50
2008,07,23,00,01,11.50
2008,07,23,00,02,11.50
2008,07,23,00,03,11.50
2008,07,23,00,04,11.50
2008,07,23,00,05,11.50
2008,07,23,00,06,11.50
2008,07,23,00,07,11.50
2008,07,23,00,08,11.40
2008,07,23,00,09,11.40
2008,07,23,00,10,11.40
2008,07,23,00,11,11.40
2008,07,23,00,12,11.40
2008,07,23,00,13,11.40
2008,07,23,00,14,11.40
2008,07,23,00,15,11.40
2008,07,23,00,16,11.40
2008,07,23,00,17,11.40
2008,07,23,00,18,11.40
2008,07,23,00,19,11.40
2008,07,23,00,20,11.30
2008,07,23,00,21,11.30
2008,07,23,00,22,11.30
2008,07,23,00,23,11.30
2008,07,23,00,24,11.30
2008,07,23,00,25,11.30
2008,07,23,00,26,11.30
2008,07,23,00,27,11.30
2008,07,23,00,28,11.30
2008,07,23,00,29,11.30
2008,07,23,00,30,11.30
2008,07,23,00,31,11.30
2008,07,23,00,32,11.30
2008,07,23,00,33,11.30
2008,07,23,00,34,11.30
2008,07,23,00,35,11.30
2008,07,23,00,36,11.30
2008,07,23,00,37,11.30
2008,07,23,00,38,11.30
2008,07,23,00,39,11.30
2008,07,23,00,40,11.30
2008,07,23,00,41,11.30
2008,07,23,00,42,11.30
2008,07,23,00,43,11.30
2008,07,23,00,44,11.40
2008,07,23,00,45,11.40
2008,07,23,00,46,11.40
2008,07,23,00,47,11.40
2008,07,23,00,48,11.40
2008,07,23,00,49,11.40
2008,07,23,00,50,11.40
2008,07,23,00,51,11.40
2008,07,23,00,52,11.40
2008,07,23,00,53,11.50
2008,07,23,00,54,11.50
2008,07,23,00,55,11.50
2008,07,23,00,56,11.50
2008,07,23,00,57,11.50
2008,07,23,00,58,11.50
2008,07,23,00,59,11.50
2008,07,23,01,00,11.60
2008,07,23,01,01,11.60
2008,07,23,01,02,11.60
2008,07,23,01,03,11.60
2008,07,23,01,04,11.60
2008,07,23,01,05,11.60
2008,07,23,01,06,11.60
2008,07,23,01,07,11.60
2008,07,23,01,08,11.60
2008,07,23,01,09,11.60
2008,07,23,01,10,11.60
2008,07,23,01,11,11.60
2008,07,23,01,12,11.60
2008,07,23,01,13,11.70
2008,07,23,01,14,11.60
2008,07,23,01,15,11.70
2008,07,23,01,16,11.70
2008,07,23,01,17,11.70
2008,07,23,01,18,11.70
2008,07,23,01,19,11.70
2008,07,23,01,20,11.70
2008,07,23,01,21,11.70
2008,07,23,01,22,11.70
2008,07,23,01,23,11.70
2008,07,23,01,24,11.70
2008,07,23,01,25,11.70
2008,07,23,01,26,11.70
2008,07,23,01,27,11.70
2008,07,23,01,28,11.70
2008,07,23,01,29,11.70
2008,07,23,01,30,11.70
2008,07,23,01,31,11.70
2008,07,23,01,32,11.70
2008,07,23,01,33,11.70
2008,07,23,01,34,11.80
2008,07,23,01,35,11.80
2008,07,23,01,36,11.80
2008,07,23,01,37,11.80
2008,07,23,01,38,11.80
2008,07,23,01,39,11.80
2008,07,23,01,40,11.80
2008,07,23,01,41,11.80
2008,07,23,01,42,11.80
2008,07,23,01,43,11.80
2008,07,23,01,44,11.80
2008,07,23,01,45,11.80
2008,07,23,01,46,11.80
2008,07,23,01,47,11.80
2008,07,23,01,48,11.80
2008,07,23,01,49,11.80
2008,07,23,01,50,11.80
2008,07,23,01,51,11.80
2008,07,23,01,52,11.80
2008,07,23,01,53,11.80
2008,07,23,01,54,11.80
2008,07,23,01,55,11.80
2008,07,23,01,56,11.80
2008,07,23,01,57,11.80
2008,07,23,01,58,11.80
2008,07,23,01,59,11.80
2008,07,23,02,00,11.80
2008,07,23,02,01,11.80
2008,07,23,02,02,11.80
2008,07,23,02,03,11.80
2008,07,23,02,04,11.80
2008,07,23,02,05,11.70
2008,07,23,02,06,11.70
2008,07,23,02,07,11.70
2008,07,23,02,08,11.70
2008,07,23,02,09,11.70
2008,07,23,02,10,11.70
2008,07,23,02,11,11.70
2008,07,23,02,12,11.70
2008,07,23,02,13,11.70
2008,07,23,02,14,11.70
2008,07,23,02,15,11.70
2008,07,23,02,16,11.70
2008,07,23,02,17,11.70
2008,07,23,02,18,11.70
2008,07,23,02,19,11.70
2008,07,23,02,20,11.70
2008,07,23,02,21,11.70
2008,07,23,02,22,11.70
2008,07,23,02,23,11.70
2008,07,23,02,24,11.70
2008,07,23,02,25,11.70
2008,07,23,02,26,11.70
2008,07,23,02,27,11.70
2008,07,23,02,28,11.70
2008,07,23,02,29,11.70
2008,07,23,02,30,11.70
2008,07,23,02,31,11.70
2008,07,23,02,32,11.70
2008,07,23,02,33,11.70
2008,07,23,02,34,11.70
2008,07,23,02,35,11.60
2008,07,23,02,36,11.60
2008,07,23,02,37,11.60
2008,07,23,02,38,11.60
2008,07,23,02,39,11.60
2008,07,23,02,40,11.60
2008,07,23,02,41,11.60
2008,07,23,02,42,11.60
2008,07,23,02,43,11.60
2008,07,23,02,44,11.60
2008,07,23,02,45,11.60
2008,07,23,02,46,11.50
2008,07,23,02,47,11.50
2008,07,23,02,48,11.50
2008,07,23,02,49,11.50
2008,07,23,02,50,11.50
2008,07,23,02,51,11.50
2008,07,23,02,52,11.40
2008,07,23,02,53,11.40
2008,07,23,02,54,11.40
2008,07,23,02,55,11.40
2008,07,23,02,56,11.40
2008,07,23,02,57,11.40
2008,07,23,02,58,11.40
2008,07,23,02,59,11.40
2008,07,23,03,00,11.40
2008,07,23,03,01,11.40
2008,07,23,03,02,11.40
2008,07,23,03,03,11.30
2008,07,23,03,04,11.30
2008,07,23,03,05,11.30
2008,07,23,03,06,11.30
2008,07,23,03,07,11.30
2008,07,23,03,08,11.30
2008,07,23,03,09,11.30
2008,07,23,03,10,11.30
2008,07,23,03,11,11.30
2008,07,23,03,12,11.30
2008,07,23,03,13,11.30
2008,07,23,03,14,11.30
2008,07,23,03,15,11.30
2008,07,23,03,16,11.30
2008,07,23,03,17,11.30
2008,07,23,03,18,11.30
2008,07,23,03,19,11.30
2008,07,23,03,20,11.30
2008,07,23,03,21,11.30
2008,07,23,03,22,11.30
2008,07,23,03,23,11.30
2008,07,23,03,24,11.30
2008,07,23,03,25,11.30
2008,07,23,03,26,11.30
2008,07,23,03,27,11.30
2008,07,23,03,28,11.20
2008,07,23,03,29,11.30
2008,07,23,03,30,11.20
2008,07,23,03,31,11.20
2008,07,23,03,32,11.20
2008,07,23,03,33,11.20
2008,07,23,03,34,11.20
2008,07,23,03,35,11.20
2008,07,23,03,36,11.20
2008,07,23,03,37,11.20
2008,07,23,03,38,11.20
2008,07,23,03,39,11.20
2008,07,23,03,40,11.20
2008,07,23,03,41,11.20
2008,07,23,03,42,11.20
2008,07,23,03,43,11.20
2008,07,23,03,44,11.20
2008,07,23,03,45,11.30
2008,07,23,03,46,11.30
2008,07,23,03,47,11.30
2008,07,23,03,48,11.30
2008,07,23,03,49,11.30
2008,07,23,03,50,11.30
2008,07,23,03,51,11.30
2008,07,23,03,52,11.30
2008,07,23,03,53,11.30
2008,07,23,03,54,11.30
2008,07,23,03,55,11.30
2008,07,23,03,56,11.30
2008,07,23,03,57,11.30
2008,07,23,03,58,11.30
2008,07,23,03,59,11.30
2008,07,23,04,00,11.30
2008,07,23,04,01,11.30
2008,07,23,04,02,11.30
2008,07,23,04,03,11.30
2008,07,23,04,05,11.30
2008,07,23,04,06,11.30
2008,07,23,04,07,11.20
2008,07,23,04,08,11.20
2008,07,23,04,09,11.20
2008,07,23,04,10,11.20
2008,07,23,04,11,11.20
2008,07,23,04,12,11.20
2008,07,23,04,13,11.20
2008,07,23,04,14,11.20
2008,07,23,04,15,11.20
2008,07,23,04,16,11.20
2008,07,23,04,17,11.20
2008,07,23,04,18,11.20
2008,07,23,04,19,11.20
2008,07,23,04,20,11.20
2008,07,23,04,21,11.20
2008,07,23,04,22,11.20
2008,07,23,04,23,11.20
2008,07,23,04,24,11.20
2008,07,23,04,25,11.10
2008,07,23,04,26,11.10
2008,07,23,04,27,11.10
2008,07,23,04,28,11.10
2008,07,23,04,29,11.10
2008,07,23,04,30,11.10
2008,07,23,04,31,11.10
2008,07,23,04,32,11.10
2008,07,23,04,33,11.20
2008,07,23,04,34,11.10
2008,07,23,04,35,11.20
2008,07,23,04,36,11.20
2008,07,23,04,37,11.20
2008,07,23,04,38,11.20
2008,07,23,04,39,11.20
2008,07,23,04,40,11.20
2008,07,23,04,41,11.20
2008,07,23,04,42,11.20
2008,07,23,04,43,11.20
2008,07,23,04,44,11.20
2008,07,23,04,45,11.20
2008,07,23,04,46,11.10
2008,07,23,04,47,11.10
2008,07,23,04,48,11.10
2008,07,23,04,49,11.10
2008,07,23,04,50,11.10
2008,07,23,04,51,11.10
2008,07,23,04,52,11.10
2008,07,23,04,53,11.10
2008,07,23,04,54,11.10
2008,07,23,04,55,11.10
2008,07,23,04,56,11.10
2008,07,23,04,57,11.10
2008,07,23,04,58,11.10
2008,07,23,04,59,11.10
2008,07,23,05,00,11.10
2008,07,23,05,01,11.00
2008,07,23,05,02,11.00
2008,07,23,05,03,11.00
2008,07,23,05,04,11.00
2008,07,23,05,05,11.00
2008,07,23,05,06,11.00
2008,07,23,05,07,11.00
2008,07,23,05,08,11.00
2008,07,23,05,09,11.00
2008,07,23,05,10,11.00
2008,07,23,05,11,11.00
2008,07,23,05,12,10.90
2008,07,23,05,13,10.90
2008,07,23,05,14,10.90
2008,07,23,05,15,11.00
2008,07,23,05,16,10.90
2008,07,23,05,17,10.90
2008,07,23,05,18,10.90
2008,07,23,05,19,10.90
2008,07,23,05,20,10.90
2008,07,23,05,21,10.90
2008,07,23,05,22,10.90
2008,07,23,05,23,10.90
2008,07,23,05,24,10.90
2008,07,23,05,25,10.90
2008,07,23,05,26,10.90
2008,07,23,05,27,10.90
2008,07,23,05,28,10.90
2008,07,23,05,29,10.90
2008,07,23,05,30,10.90
2008,07,23,05,31,10.90
2008,07,23,05,32,10.90
2008,07,23,05,33,10.90
2008,07,23,05,34,10.90
2008,07,23,05,35,10.90
2008,07,23,05,36,10.90
2008,07,23,05,37,10.90
2008,07,23,05,38,10.90
2008,07,23,05,39,10.90
2008,07,23,05,40,10.90
2008,07,23,05,41,10.90
2008,07,23,05,42,10.90
2008,07,23,05,43,11.00
2008,07,23,05,44,10.90
2008,07,23,05,45,11.00
2008,07,23,05,46,11.00
2008,07,23,05,47,11.00
2008,07,23,05,48,11.00
2008,07,23,05,49,11.00
2008,07,23,05,50,11.00
2008,07,23,05,51,11.00
2008,07,23,05,52,11.00
2008,07,23,05,53,11.00
2008,07,23,05,54,11.00
2008,07,23,05,55,11.00
2008,07,23,05,56,11.00
2008,07,23,05,57,11.00
2008,07,23,05,58,11.00
2008,07,23,05,59,11.00
2008,07,23,06,00,11.00
2008,07,23,06,01,11.00
2008,07,23,06,02,11.00
2008,07,23,06,03,11.00
2008,07,23,06,04,11.00
2008,07,23,06,05,11.00
2008,07,23,06,06,11.00
2008,07,23,06,07,11.00
2008,07,23,06,08,11.00
2008,07,23,06,09,11.00
2008,07,23,06,10,11.10
2008,07,23,06,11,11.00
2008,07,23,06,12,11.00
2008,07,23,06,13,11.00
2008,07,23,06,14,11.00
2008,07,23,06,15,11.10
2008,07,23,06,16,11.10
2008,07,23,06,17,11.10
2008,07,23,06,18,11.10
2008,07,23,06,19,11.10
2008,07,23,06,20,11.10
2008,07,23,06,21,11.10
2008,07,23,06,22,11.10
2008,07,23,06,23,11.10
2008,07,23,06,24,11.10
2008,07,23,06,25,11.10
2008,07,23,06,26,11.10
2008,07,23,06,27,11.20
2008,07,23,06,28,11.20
2008,07,23,06,29,11.20
2008,07,23,06,30,11.20
2008,07,23,06,31,11.20
2008,07,23,06,32,11.20
2008,07,23,06,33,11.20
2008,07,23,06,34,11.20
2008,07,23,06,35,11.20
2008,07,23,06,36,11.20
2008,07,23,06,37,11.20
2008,07,23,06,38,11.30
2008,07,23,06,39,11.30
2008,07,23,06,40,11.30
2008,07,23,06,41,11.30
2008,07,23,06,42,11.30
2008,07,23,06,43,11.30
2008,07,23,06,44,11.30
2008,07,23,06,45,11.30
2008,07,23,06,46,11.30
2008,07,23,06,47,11.30
2008,07,23,06,48,11.30
2008,07,23,06,49,11.30
2008,07,23,06,50,11.30
2008,07,23,06,51,11.30
2008,07,23,06,52,11.30
2008,07,23,06,53,11.30
2008,07,23,06,54,11.30
2008,07,23,13,24,19.20
2008,07,23,13,25,19.30
2008,07,23,13,26,19.50
2008,07,23,13,27,19.60
2008,07,23,13,28,19.60
2008,07,23,13,29,19.60
2008,07,23,13,30,19.60
2008,07,23,13,31,19.60
2008,07,23,13,32,19.60
2008,07,23,13,33,19.60
2008,07,23,13,34,19.60
2008,07,23,13,35,19.60
2008,07,23,13,36,19.60
2008,07,23,13,37,19.70
2008,07,23,13,38,19.80
2008,07,23,13,39,19.80
2008,07,23,13,40,19.80
2008,07,23,13,41,19.70
2008,07,23,13,42,19.70
2008,07,23,13,43,19.60
2008,07,23,13,44,19.60
2008,07,23,13,45,19.60
2008,07,23,13,46,19.70
2008,07,23,13,47,19.70
2008,07,23,13,48,19.70
2008,07,23,13,49,19.70
2008,07,23,13,50,19.70
2008,07,23,13,51,19.70
2008,07,23,13,52,19.60
2008,07,23,13,53,19.60
2008,07,23,13,54,19.70
2008,07,23,13,55,19.70
2008,07,23,13,56,19.70
2008,07,23,13,57,19.70
2008,07,23,13,58,19.70
2008,07,23,13,59,19.80
2008,07,23,14,00,19.90
2008,07,23,14,01,19.90
2008,07,23,14,02,19.90
2008,07,23,14,03,19.90
2008,07,23,14,04,19.80
2008,07,23,14,05,19.80
2008,07,23,14,06,19.90
2008,07,23,14,07,20.00
2008,07,23,14,08,20.10
2008,07,23,14,09,20.20
2008,07,23,14,10,20.20
2008,07,23,14,11,20.10
2008,07,23,14,12,20.00
2008,07,23,14,13,19.90
2008,07,23,14,14,19.90
2008,07,23,14,15,19.80
2008,07,23,14,16,19.70
2008,07,23,14,17,19.60
2008,07,23,14,18,19.40
2008,07,23,14,19,19.30
2008,07,23,14,20,19.40
2008,07,23,14,21,19.40
2008,07,23,14,22,19.50
2008,07,23,14,23,19.50
2008,07,23,14,24,19.50
2008,07,23,14,25,19.50
2008,07,23,14,26,19.40
2008,07,23,14,27,19.40
2008,07,23,14,28,19.50
2008,07,23,14,29,19.60
2008,07,23,14,30,19.60
2008,07,23,14,31,19.60
2008,07,23,14,32,19.60
2008,07,23,14,33,19.60
2008,07,23,14,34,19.50
2008,07,23,14,35,19.40
2008,07,23,14,36,19.40
2008,07,23,14,37,19.40
2008,07,23,14,38,19.50
2008,07,23,14,39,19.50
2008,07,23,14,40,19.50
2008,07,23,14,41,19.60
2008,07,23,14,42,19.60
2008,07,23,14,43,19.60
2008,07,23,14,44,19.60
2008,07,23,14,45,19.60
2008,07,23,14,46,19.60
2008,07,23,14,47,19.60
2008,07,23,14,48,19.50
2008,07,23,14,49,19.50
2008,07,23,14,50,19.40
2008,07,23,14,51,19.40
2008,07,23,14,52,19.40
2008,07,23,14,53,19.30
2008,07,23,14,54,19.30
2008,07,23,14,55,19.30
2008,07,23,14,56,19.40
2008,07,23,14,57,19.40
2008,07,23,14,58,19.40
2008,07,23,14,59,19.40
2008,07,23,15,00,19.40
2008,07,23,15,01,19.40
2008,07,23,15,02,19.50
2008,07,23,15,03,19.60
2008,07,23,15,04,19.60
2008,07,23,15,05,19.60
2008,07,23,15,06,19.60
2008,07,23,15,07,19.70
2008,07,23,15,08,19.80
2008,07,23,15,09,19.90
2008,07,23,15,10,19.90
2008,07,23,15,11,20.00
2008,07,23,15,12,20.10
2008,07,23,15,13,20.10
2008,07,23,15,14,20.00
2008,07,23,15,15,20.00
2008,07,23,15,16,20.00
2008,07,23,15,17,20.00
2008,07,23,15,18,20.00
2008,07,23,15,19,20.10
2008,07,23,15,20,20.20
2008,07,23,15,21,20.20
2008,07,23,15,22,20.10
2008,07,23,15,23,20.00
2008,07,23,15,24,19.90
2008,07,23,15,25,19.70
2008,07,23,15,26,19.60
2008,07,23,15,27,19.70
2008,07,23,15,28,19.80
2008,07,23,15,29,19.90
2008,07,23,15,30,19.90
2008,07,23,15,31,20.00
2008,07,23,15,32,20.00
2008,07,23,15,33,20.10
2008,07,23,15,34,20.20
2008,07,23,15,35,20.30
2008,07,23,15,36,20.30
2008,07,23,15,37,20.30
2008,07,23,15,38,20.30
2008,07,23,15,39,20.30
2008,07,23,15,40,20.30
2008,07,23,15,41,20.30
2008,07,23,15,42,20.30
2008,07,23,15,43,20.30
2008,07,23,15,44,20.30
2008,07,23,15,45,20.30
2008,07,23,15,46,20.30
2008,07,23,15,47,20.20
2008,07,23,15,48,20.10
2008,07,23,15,49,20.00
2008,07,23,15,50,19.90
2008,07,23,15,51,19.80
2008,07,23,15,52,19.80
2008,07,23,15,53,19.80
2008,07,23,15,54,19.80
2008,07,23,15,55,19.80
2008,07,23,15,56,19.80
2008,07,23,15,57,19.80
2008,07,23,15,58,19.80
2008,07,23,15,59,19.80
2008,07,23,16,00,19.90
2008,07,23,16,01,19.90
2008,07,23,16,02,19.90
2008,07,23,16,03,19.90
2008,07,23,16,04,20.00
2008,07,23,16,05,20.10
2008,07,23,16,06,20.10
2008,07,23,16,07,20.10
2008,07,23,16,08,20.10
2008,07,23,16,09,20.10
2008,07,23,16,10,20.00
2008,07,23,16,11,20.00
2008,07,23,16,12,19.90
2008,07,23,16,13,19.90
2008,07,23,16,14,19.80
2008,07,23,16,15,19.90
2008,07,23,16,16,19.90
2008,07,23,16,17,20.00
2008,07,23,16,18,20.10
2008,07,23,16,19,20.20
2008,07,23,16,20,20.30
2008,07,23,16,21,20.30
2008,07,23,16,22,20.30
2008,07,23,16,23,20.30
2008,07,23,16,24,20.30
2008,07,23,16,25,20.20
2008,07,23,16,26,20.20
2008,07,23,16,27,20.10
2008,07,23,16,28,20.10
2008,07,23,16,29,20.10
2008,07,23,16,30,20.10
2008,07,23,16,31,20.10
2008,07,23,16,32,20.00
2008,07,23,16,33,19.90
2008,07,23,16,34,19.90
2008,07,23,16,35,19.80
2008,07,23,16,36,19.80
2008,07,23,16,37,19.80
2008,07,23,16,38,19.80
2008,07,23,16,39,19.70
2008,07,23,16,40,19.70
2008,07,23,16,41,19.80
2008,07,23,16,42,19.80
2008,07,23,16,43,19.70
2008,07,23,16,44,19.70
2008,07,23,16,45,19.70
2008,07,23,16,46,19.80
2008,07,23,16,47,19.90
2008,07,23,16,48,19.90
2008,07,23,16,49,19.90
2008,07,23,16,50,20.00
2008,07,23,16,51,20.00
2008,07,23,16,52,20.10
2008,07,23,16,53,20.10
2008,07,23,16,54,20.10
2008,07,23,16,55,20.10
2008,07,23,16,56,20.00
2008,07,23,16,57,20.10
2008,07,23,16,58,20.10
2008,07,23,16,59,20.10
2008,07,23,17,00,20.10
2008,07,23,17,01,20.10
2008,07,23,17,02,20.20
2008,07,23,17,03,20.30
2008,07,23,17,04,20.30
2008,07,23,17,05,20.30
2008,07,23,17,06,20.30
2008,07,23,17,07,20.20
2008,07,23,17,08,20.10
2008,07,23,17,09,20.10
2008,07,23,17,10,20.00
2008,07,23,17,11,19.90
2008,07,23,17,12,19.90
2008,07,23,17,13,19.90
2008,07,23,17,14,19.90
2008,07,23,17,15,19.90
2008,07,23,17,16,19.90
2008,07,23,17,17,19.90
2008,07,23,17,18,19.90
2008,07,23,17,19,19.80
2008,07,23,17,20,19.80
2008,07,23,17,21,19.70
2008,07,23,17,22,19.70
2008,07,23,17,23,19.50
2008,07,23,17,24,19.40
2008,07,23,17,25,19.40
2008,07,23,17,26,19.40
2008,07,23,17,27,19.50
2008,07,23,17,28,19.50
2008,07,23,17,29,19.50
2008,07,23,17,30,19.40
2008,07,23,17,31,19.40
2008,07,23,17,32,19.50
2008,07,23,17,33,19.60
2008,07,23,17,34,19.60
2008,07,23,17,35,19.70
2008,07,23,17,36,19.80
2008,07,23,17,37,19.90
2008,07,23,17,38,19.90
2008,07,23,17,39,19.90
2008,07,23,17,40,19.80
2008,07,23,17,41,19.80
2008,07,23,17,42,19.90
2008,07,23,17,43,19.90
2008,07,23,17,44,20.00
2008,07,23,17,45,20.00
2008,07,23,17,46,19.90
2008,07,23,17,47,19.90
2008,07,23,17,48,19.80
2008,07,23,17,49,19.70
2008,07,23,17,50,19.70
2008,07,23,17,51,19.70
2008,07,23,17,52,19.60
2008,07,23,17,53,19.60
2008,07,23,17,54,19.50
2008,07,23,17,55,19.50
2008,07,23,17,56,19.40
2008,07,23,17,57,19.40
2008,07,23,17,58,19.40
2008,07,23,17,59,19.40
2008,07,23,18,00,19.50
2008,07,23,18,01,19.50
2008,07,23,18,02,19.50
2008,07,23,18,03,19.50
2008,07,23,18,04,19.40
2008,07,23,18,05,19.40
2008,07,23,18,06,19.30
2008,07,23,18,07,19.30
2008,07,23,18,08,19.20
2008,07,23,18,09,19.20
2008,07,23,18,10,19.10
2008,07,23,18,11,19.20
2008,07,23,18,12,19.20
2008,07,23,18,13,19.20
2008,07,23,18,14,19.20
2008,07,23,18,15,19.30
2008,07,23,18,16,19.30
2008,07,23,18,17,19.30
2008,07,23,18,18,19.30
2008,07,23,18,19,19.30
2008,07,23,18,20,19.30
2008,07,23,18,21,19.20
2008,07,23,18,22,19.20
2008,07,23,18,23,19.20
2008,07,23,18,24,19.10
2008,07,23,18,25,19.10
2008,07,23,18,26,19.10
2008,07,23,18,27,19.10
2008,07,23,18,28,19.10
2008,07,23,18,29,19.20
2008,07,23,18,30,19.20
2008,07,23,18,31,19.20
2008,07,23,18,32,19.30
2008,07,23,18,33,19.30
2008,07,23,18,34,19.30
2008,07,23,18,35,19.20
2008,07,23,18,36,19.20
2008,07,23,18,37,19.20
2008,07,23,18,38,19.20
2008,07,23,18,39,19.10
2008,07,23,18,40,19.10
2008,07,23,18,41,19.10
2008,07,23,18,42,19.10
2008,07,23,18,43,19.10
2008,07,23,18,44,19.10
2008,07,23,18,45,19.00
2008,07,23,18,46,19.00
2008,07,23,18,47,18.90
2008,07,23,18,48,18.80
2008,07,23,18,49,18.80
2008,07,23,18,50,18.80
2008,07,23,18,51,18.80
2008,07,23,18,52,18.90
2008,07,23,18,53,19.00
2008,07,23,18,54,19.00
2008,07,23,18,55,19.00
2008,07,23,18,56,19.10
2008,07,23,18,57,19.10
2008,07,23,18,58,19.10
2008,07,23,18,59,19.00
2008,07,23,19,00,19.00
2008,07,23,19,01,18.90
2008,07,23,19,02,18.80
2008,07,23,19,03,18.70
2008,07,23,19,04,18.60
2008,07,23,19,05,18.60
2008,07,23,19,06,18.60
2008,07,23,19,07,18.50
2008,07,23,19,08,18.50
2008,07,23,19,09,18.40
2008,07,23,19,10,18.40
2008,07,23,19,11,18.30
2008,07,23,19,12,18.30
2008,07,23,19,13,18.30
2008,07,23,19,14,18.20
2008,07,23,19,15,18.20
2008,07,23,19,16,18.20
2008,07,23,19,17,18.20
2008,07,23,19,18,18.20
2008,07,23,19,19,18.20
2008,07,23,19,20,18.20
2008,07,23,19,21,18.20
2008,07,23,19,22,18.20
2008,07,23,19,23,18.20
2008,07,23,19,24,18.20
2008,07,23,19,25,18.20
2008,07,23,19,26,18.20
2008,07,23,19,27,18.20
2008,07,23,19,28,18.20
2008,07,23,19,29,18.20
2008,07,23,19,30,18.20
2008,07,23,19,31,18.10
2008,07,23,19,32,18.10
2008,07,23,19,33,18.10
2008,07,23,19,34,18.10
2008,07,23,19,35,18.00
2008,07,23,19,36,18.00
2008,07,23,19,37,18.00
2008,07,23,19,38,18.00
2008,07,23,19,39,17.90
2008,07,23,19,40,17.90
2008,07,23,19,41,17.90
2008,07,23,19,42,17.90
2008,07,23,19,43,17.90
2008,07,23,19,44,17.90
2008,07,23,19,45,17.90
2008,07,23,19,46,17.90
2008,07,23,19,47,17.90
2008,07,23,19,48,17.90
2008,07,23,19,49,17.90
2008,07,23,19,50,17.90
2008,07,23,19,51,17.90
2008,07,23,19,52,17.80
2008,07,23,19,53,17.80
2008,07,23,19,54,17.70
2008,07,23,19,55,17.60
2008,07,23,19,56,17.60
2008,07,23,19,57,17.50
2008,07,23,19,58,17.50
2008,07,23,19,59,17.50
2008,07,23,20,00,17.40
2008,07,23,20,01,17.40
2008,07,23,20,02,17.40
2008,07,23,20,03,17.30
2008,07,23,20,04,17.30
2008,07,23,20,05,17.30
2008,07,23,20,06,17.30
2008,07,23,20,07,17.20
2008,07,23,20,08,17.20
2008,07,23,20,09,17.20
2008,07,23,20,10,17.10
2008,07,23,20,11,17.10
2008,07,23,20,12,17.10
2008,07,23,20,13,17.00
2008,07,23,20,14,17.00
2008,07,23,20,15,16.90
2008,07,23,20,16,16.90
2008,07,23,20,17,16.90
2008,07,23,20,18,16.80
2008,07,23,20,19,16.80
2008,07,23,20,20,16.80
2008,07,23,20,21,16.70
2008,07,23,20,22,16.70
2008,07,23,20,23,16.70
2008,07,23,20,24,16.70
2008,07,23,20,25,16.70
2008,07,23,20,26,16.60
2008,07,23,20,27,16.60
2008,07,23,20,28,16.60
2008,07,23,20,29,16.50
2008,07,23,20,30,16.50
2008,07,23,20,31,16.40
2008,07,23,20,32,16.40
2008,07,23,20,33,16.40
2008,07,23,20,34,16.40
2008,07,23,20,35,16.30
2008,07,23,20,36,16.30
2008,07,23,20,37,16.20
2008,07,23,20,38,16.20
2008,07,23,20,39,16.20
2008,07,23,20,40,16.10
2008,07,23,20,41,16.10
2008,07,23,20,42,16.10
2008,07,23,20,43,16.00
2008,07,23,20,44,15.90
2008,07,23,20,45,15.90
2008,07,23,20,46,15.90
2008,07,23,20,47,15.80
2008,07,23,20,48,15.80
2008,07,23,20,49,15.80
2008,07,23,20,50,15.80
2008,07,23,20,51,15.80
2008,07,23,20,52,15.70
2008,07,23,20,53,15.70
2008,07,23,20,54,15.70
2008,07,23,20,55,15.60
2008,07,23,20,56,15.60
2008,07,23,20,57,15.60
2008,07,23,20,58,15.60
2008,07,23,20,59,15.50
2008,07,23,21,00,15.50
2008,07,23,21,01,15.50
2008,07,23,21,02,15.40
2008,07,23,21,03,15.40
2008,07,23,21,04,15.40
2008,07,23,21,05,15.40
2008,07,23,21,06,15.40
2008,07,23,21,07,15.40
2008,07,23,21,08,15.30
2008,07,23,21,09,15.30
2008,07,23,21,10,15.30
2008,07,23,21,11,15.30
2008,07,23,21,12,15.30
2008,07,23,21,13,15.20
2008,07,23,21,14,15.20
2008,07,23,21,15,15.20
2008,07,23,21,16,15.20
2008,07,23,21,17,15.10
2008,07,23,21,18,15.00
2008,07,23,21,19,15.00
2008,07,23,21,20,15.00
2008,07,23,21,21,15.00
2008,07,23,21,22,15.00
2008,07,23,21,23,15.00
2008,07,23,21,24,15.00
2008,07,23,21,25,15.00
2008,07,23,21,26,15.00
2008,07,23,21,27,15.00
2008,07,23,21,28,14.90
2008,07,23,21,29,14.90
2008,07,23,21,30,14.90
2008,07,23,21,31,14.90
2008,07,23,21,32,14.90
2008,07,23,21,33,14.90
2008,07,23,21,34,14.80
2008,07,23,21,35,14.80
2008,07,23,21,36,14.80
2008,07,23,21,37,14.80
2008,07,23,21,38,14.70
2008,07,23,21,39,14.70
2008,07,23,21,40,14.70
2008,07,23,21,41,14.70
2008,07,23,21,42,14.70
2008,07,23,21,43,14.60
2008,07,23,21,44,14.60
2008,07,23,21,45,14.50
2008,07,23,21,46,14.50
2008,07,23,21,47,14.40
2008,07,23,21,48,14.40
2008,07,23,21,49,14.40
2008,07,23,21,50,14.30
2008,07,23,21,51,14.30
2008,07,23,21,52,14.30
2008,07,23,21,53,14.20
2008,07,23,21,54,14.20
2008,07,23,21,55,14.20
2008,07,23,21,56,14.20
2008,07,23,21,57,14.10
2008,07,23,21,58,14.10
2008,07,23,21,59,14.10
2008,07,23,22,00,14.10
2008,07,23,22,01,14.00
2008,07,23,22,02,14.00
2008,07,23,22,03,14.00
2008,07,23,22,04,13.90
2008,07,23,22,05,13.90
2008,07,23,22,06,13.90
2008,07,23,22,07,13.90
2008,07,23,22,08,13.80
2008,07,23,22,09,13.80
2008,07,23,22,10,13.80
2008,07,23,22,11,13.80
2008,07,23,22,12,13.80
2008,07,23,22,13,13.80
2008,07,23,22,14,13.80
2008,07,23,22,15,13.70
2008,07,23,22,16,13.70
2008,07,23,22,17,13.70
2008,07,23,22,18,13.60
2008,07,23,22,19,13.60
2008,07,23,22,20,13.60
2008,07,23,22,21,13.50
2008,07,23,22,22,13.50
2008,07,23,22,23,13.50
2008,07,23,22,24,13.50
2008,07,23,22,25,13.40
2008,07,23,22,26,13.40
2008,07,23,22,27,13.40
2008,07,23,22,28,13.30
2008,07,23,22,29,13.30
2008,07,23,22,30,13.30
2008,07,23,22,31,13.30
2008,07,23,22,32,13.30
2008,07,23,22,33,13.30
2008,07,23,22,34,13.30
2008,07,23,22,35,13.20
2008,07,23,22,36,13.20
2008,07,23,22,37,13.20
2008,07,23,22,38,13.20
2008,07,23,22,39,13.20
2008,07,23,22,40,13.20
2008,07,23,22,41,13.20
2008,07,23,22,42,13.10
2008,07,23,22,43,13.10
2008,07,23,22,44,13.10
2008,07,23,22,45,13.10
2008,07,23,22,46,13.10
2008,07,23,22,47,13.10
2008,07,23,22,48,13.00
2008,07,23,22,49,13.00
2008,07,23,22,50,13.00
2008,07,23,22,51,12.90
2008,07,23,22,52,12.90
2008,07,23,22,53,12.90
2008,07,23,22,54,12.90
2008,07,23,22,55,12.90
2008,07,23,22,56,12.90
2008,07,23,22,57,12.90
2008,07,23,22,58,12.90
2008,07,23,22,59,12.90
2008,07,23,23,00,12.80
2008,07,23,23,01,12.80
2008,07,23,23,02,12.80
2008,07,23,23,03,12.80
2008,07,23,23,04,12.80
2008,07,23,23,05,12.80
2008,07,23,23,06,12.80
2008,07,23,23,07,12.70
2008,07,23,23,08,12.70
2008,07,23,23,09,12.70
2008,07,23,23,10,12.70
2008,07,23,23,11,12.70
2008,07,23,23,12,12.70
2008,07,23,23,13,12.70
2008,07,23,23,14,12.60
2008,07,23,23,15,12.60
2008,07,23,23,16,12.60
2008,07,23,23,17,12.60
2008,07,23,23,18,12.60
2008,07,23,23,19,12.60
2008,07,23,23,20,12.60
2008,07,23,23,21,12.60
2008,07,23,23,22,12.60
2008,07,23,23,23,12.50
2008,07,23,23,24,12.50
2008,07,23,23,25,12.50
2008,07,23,23,26,12.50
2008,07,23,23,27,12.40
2008,07,23,23,28,12.40
2008,07,23,23,29,12.40
2008,07,23,23,30,12.40
2008,07,23,23,31,12.40
2008,07,23,23,32,12.30
2008,07,23,23,33,12.30
2008,07,23,23,34,12.30
2008,07,23,23,35,12.30
2008,07,23,23,36,12.30
2008,07,23,23,37,12.20
2008,07,23,23,38,12.20
2008,07,23,23,39,12.20
2008,07,23,23,40,12.20
2008,07,23,23,41,12.20
2008,07,23,23,42,12.10
2008,07,23,23,43,12.10
2008,07,23,23,44,12.10
2008,07,23,23,45,12.00
2008,07,23,23,46,12.00
2008,07,23,23,47,12.00
2008,07,23,23,48,11.90
2008,07,23,23,49,11.90